Time,TemperatureF,DewpointF,PressureIn,WindDirection,WindDirectionDegrees,WindSpeedMPH,WindSpeedGustMPH,Humidity,HourlyPrecipIn,Conditions,Clouds,dailyrainin,SoftwareType,DateUTC
2013-03-27 00:02:00,38.0,25.0,30.15,SSE,153,2.0,7.0,59,0.00,,,0.00,,2013-03-27 05:02:00,
2013-03-27 00:12:00,38.0,25.0,30.15,SSE,153,2.0,7.0,59,0.00,,,0.00,,2013-03-27 05:12:00,
2013-03-27 00:23:00,37.0,24.0,30.15,SE,128,2.0,9.0,60,0.00,,,0.00,,2013-03-27 05:23:00,
2013-03-27 00:33:00,37.0,25.0,30.15,SE,141,2.0,7.0,61,0.00,,,0.00,,2013-03-27 05:33:00,
2013-03-27 00:42:00,37.0,25.0,30.15,SE,141,2.0,7.0,61,0.00,,,0.00,,2013-03-27 05:42:00,
2013-03-27 00:52:00,37.0,25.0,30.14,ESE,122,1.0,7.0,62,0.00,,,0.00,,2013-03-27 05:52:00,
2013-03-27 01:02:00,36.0,25.0,30.14,SE,132,1.0,9.0,63,0.00,,,0.00,,2013-03-27 06:02:00,
2013-03-27 01:12:00,36.0,25.0,30.14,SE,132,1.0,9.0,63,0.00,,,0.00,,2013-03-27 06:12:00,
2013-03-27 01:22:00,36.0,25.0,30.14,SE,138,1.0,7.0,64,0.00,,,0.00,,2013-03-27 06:22:00,
2013-03-27 01:32:00,35.0,24.0,30.13,SE,138,0.0,1.0,64,0.00,,,0.00,,2013-03-27 06:32:00,
2013-03-27 01:42:00,35.0,24.0,30.13,SE,138,0.0,1.0,64,0.00,,,0.00,,2013-03-27 06:42:00,
2013-03-27 01:52:00,34.0,24.0,30.13,SE,136,1.0,5.0,67,0.00,,,0.00,,2013-03-27 06:52:00,
2013-03-27 02:02:00,34.0,25.0,30.13,SE,134,0.0,4.0,70,0.00,,,0.00,,2013-03-27 07:02:00,
2013-03-27 02:12:00,34.0,25.0,30.13,SE,134,0.0,4.0,70,0.00,,,0.00,,2013-03-27 07:12:00,
2013-03-27 02:22:00,34.0,25.0,30.13,SE,142,1.0,3.0,70,0.00,,,0.00,,2013-03-27 07:22:00,
2013-03-27 02:32:00,34.0,25.0,30.12,SSE,153,0.0,4.0,68,0.00,,,0.00,,2013-03-27 07:32:00,
2013-03-27 02:42:00,34.0,25.0,30.12,SSE,153,0.0,4.0,68,0.00,,,0.00,,2013-03-27 07:42:00,
2013-03-27 02:53:00,33.0,25.0,30.13,ENE,64,0.0,2.0,71,0.00,,,0.00,,2013-03-27 07:53:00,
2013-03-27 03:02:00,33.0,25.0,30.12,ENE,64,0.0,1.0,72,0.00,,,0.00,,2013-03-27 08:02:00,
2013-03-27 03:12:00,33.0,25.0,30.12,ENE,64,0.0,1.0,72,0.00,,,0.00,,2013-03-27 08:12:00,
2013-03-27 03:22:00,32.0,24.0,30.12,SE,132,0.0,3.0,73,0.00,,,0.00,,2013-03-27 08:22:00,
2013-03-27 03:32:00,32.0,25.0,30.11,SE,132,0.0,2.0,74,0.00,,,0.00,,2013-03-27 08:32:00,
2013-03-27 03:43:00,32.0,25.0,30.11,SE,132,0.0,2.0,74,0.00,,,0.00,,2013-03-27 08:43:00,
2013-03-27 03:52:00,31.0,24.0,30.11,SE,132,1.0,2.0,75,0.00,,,0.00,,2013-03-27 08:52:00,
2013-03-27 04:02:00,31.0,24.0,30.11,SE,132,0.0,3.0,76,0.00,,,0.00,,2013-03-27 09:02:00,
2013-03-27 04:12:00,31.0,24.0,30.11,SE,132,0.0,3.0,76,0.00,,,0.00,,2013-03-27 09:12:00,
2013-03-27 04:22:00,30.0,23.0,30.10,SE,132,0.0,2.0,76,0.00,,,0.00,,2013-03-27 09:22:00,
2013-03-27 04:32:00,30.0,24.0,30.09,SE,132,0.0,2.0,77,0.00,,,0.00,,2013-03-27 09:32:00,
2013-03-27 04:42:00,30.0,24.0,30.09,SE,132,0.0,2.0,77,0.00,,,0.00,,2013-03-27 09:42:00,
2013-03-27 04:52:00,30.0,24.0,30.09,SE,132,0.0,2.0,77,0.00,,,0.00,,2013-03-27 09:52:00,
2013-03-27 05:02:00,29.0,23.0,30.09,SE,132,0.0,1.0,78,0.00,,,0.00,,2013-03-27 10:02:00,
2013-03-27 05:12:00,29.0,23.0,30.09,SE,132,0.0,1.0,78,0.00,,,0.00,,2013-03-27 10:12:00,
2013-03-27 05:23:00,29.0,23.0,30.09,SE,132,0.0,1.0,79,0.00,,,0.00,,2013-03-27 10:23:00,
2013-03-27 05:32:00,29.0,24.0,30.09,SE,132,0.0,2.0,80,0.00,,,0.00,,2013-03-27 10:32:00,
2013-03-27 05:42:00,29.0,24.0,30.09,SE,132,0.0,2.0,80,0.00,,,0.00,,2013-03-27 10:42:00,
2013-03-27 05:52:00,28.0,23.0,30.09,SE,132,0.0,2.0,81,0.00,,,0.00,,2013-03-27 10:52:00,
2013-03-27 06:02:00,28.0,23.0,30.09,SE,132,0.0,3.0,81,0.00,,,0.00,,2013-03-27 11:02:00,
2013-03-27 06:12:00,28.0,23.0,30.09,SE,132,0.0,3.0,81,0.00,,,0.00,,2013-03-27 11:12:00,
2013-03-27 06:22:00,28.0,23.0,30.09,SE,132,1.0,4.0,82,0.00,,,0.00,,2013-03-27 11:22:00,
2013-03-27 06:32:00,28.0,23.0,30.09,SE,132,0.0,2.0,82,0.00,,,0.00,,2013-03-27 11:32:00,
2013-03-27 06:42:00,28.0,23.0,30.09,SE,132,0.0,2.0,82,0.00,,,0.00,,2013-03-27 11:42:00,
2013-03-27 06:52:00,28.0,23.0,30.10,SE,132,0.0,1.0,82,0.00,,,0.00,,2013-03-27 11:52:00,
2013-03-27 07:02:00,28.0,24.0,30.10,SE,132,0.0,1.0,83,0.00,,,0.00,,2013-03-27 12:02:00,
2013-03-27 07:12:00,28.0,24.0,30.10,SE,132,0.0,1.0,83,0.00,,,0.00,,2013-03-27 12:12:00,
2013-03-27 07:23:00,28.0,24.0,30.11,SE,132,0.0,1.0,83,0.00,,,0.00,,2013-03-27 12:23:00,
2013-03-27 07:32:00,27.0,23.0,30.11,SE,132,0.0,0.0,84,0.00,,,0.00,,2013-03-27 12:32:00,
2013-03-27 07:43:00,27.0,23.0,30.11,SE,132,0.0,0.0,84,0.00,,,0.00,,2013-03-27 12:43:00,
2013-03-27 07:52:00,26.0,22.0,30.11,SE,132,0.0,1.0,84,0.00,,,0.00,,2013-03-27 12:52:00,
2013-03-27 08:02:00,27.0,23.0,30.12,SE,132,0.0,0.0,85,0.00,,,0.00,,2013-03-27 13:02:00,
2013-03-27 08:12:00,27.0,23.0,30.12,SE,132,0.0,0.0,85,0.00,,,0.00,,2013-03-27 13:12:00,
2013-03-27 08:22:00,26.0,22.0,30.12,SE,132,0.0,2.0,84,0.00,,,0.00,,2013-03-27 13:22:00,
2013-03-27 08:32:00,26.0,22.0,30.13,SE,132,0.0,1.0,85,0.00,,,0.00,,2013-03-27 13:32:00,
2013-03-27 08:42:00,26.0,22.0,30.13,SE,132,0.0,1.0,85,0.00,,,0.00,,2013-03-27 13:42:00,
2013-03-27 08:52:00,26.0,23.0,30.13,SE,132,0.0,1.0,87,0.00,,,0.00,,2013-03-27 13:52:00,
2013-03-27 09:02:00,27.0,23.0,30.14,SE,132,0.0,2.0,84,0.00,,,0.00,,2013-03-27 14:02:00,
2013-03-27 09:12:00,27.0,23.0,30.14,SE,132,0.0,2.0,84,0.00,,,0.00,,2013-03-27 14:12:00,
2013-03-27 09:22:00,29.0,24.0,30.14,SE,132,0.0,2.0,82,0.00,,,0.00,,2013-03-27 14:22:00,
2013-03-27 09:32:00,31.0,25.0,30.14,SE,132,0.0,3.0,79,0.00,,,0.00,,2013-03-27 14:32:00,
2013-03-27 09:42:00,31.0,25.0,30.14,SE,132,0.0,3.0,79,0.00,,,0.00,,2013-03-27 14:42:00,
2013-03-27 09:52:00,32.0,25.0,30.14,SE,132,1.0,3.0,76,0.00,,,0.00,,2013-03-27 14:52:00,
2013-03-27 10:02:00,33.0,26.0,30.14,SE,132,0.0,3.0,74,0.00,,,0.00,,2013-03-27 15:02:00,
2013-03-27 10:12:00,33.0,26.0,30.14,SE,132,0.0,3.0,74,0.00,,,0.00,,2013-03-27 15:12:00,
2013-03-27 10:22:00,35.0,27.0,30.14,SE,132,1.0,5.0,72,0.00,,,0.00,,2013-03-27 15:22:00,
2013-03-27 10:33:00,36.0,27.0,30.14,SE,132,1.0,4.0,69,0.00,,,0.00,,2013-03-27 15:33:00,
2013-03-27 10:42:00,36.0,27.0,30.14,SE,132,1.0,4.0,69,0.00,,,0.00,,2013-03-27 15:42:00,
2013-03-27 10:52:00,38.0,28.0,30.14,SE,132,0.0,2.0,66,0.00,,,0.00,,2013-03-27 15:52:00,
2013-03-27 11:02:00,39.0,28.0,30.13,ESE,122,0.0,3.0,65,0.00,,,0.00,,2013-03-27 16:02:00,
2013-03-27 11:13:00,39.0,28.0,30.13,ESE,122,0.0,3.0,65,0.00,,,0.00,,2013-03-27 16:13:00,
2013-03-27 11:22:00,40.0,28.0,30.14,ENE,59,1.0,5.0,62,0.00,,,0.00,,2013-03-27 16:22:00,
2013-03-27 11:32:00,41.0,29.0,30.14,ESE,120,1.0,7.0,61,0.00,,,0.00,,2013-03-27 16:32:00,
2013-03-27 11:42:00,41.0,29.0,30.14,ESE,120,1.0,7.0,61,0.00,,,0.00,,2013-03-27 16:42:00,
2013-03-27 11:52:00,42.0,28.0,30.12,ESE,120,0.0,2.0,57,0.00,,,0.00,,2013-03-27 16:52:00,
2013-03-27 12:03:00,44.0,29.0,30.13,SE,142,0.0,3.0,55,0.00,,,0.00,,2013-03-27 17:03:00,
2013-03-27 12:12:00,44.0,29.0,30.13,SE,142,0.0,3.0,55,0.00,,,0.00,,2013-03-27 17:12:00,
2013-03-27 12:22:00,44.0,28.0,30.13,North,360,0.0,3.0,52,0.00,,,0.00,,2013-03-27 17:22:00,
2013-03-27 12:32:00,45.0,28.0,30.13,SSW,200,0.0,5.0,52,0.00,,,0.00,,2013-03-27 17:32:00,
2013-03-27 12:44:00,45.0,28.0,30.13,SSW,200,0.0,5.0,52,0.00,,,0.00,,2013-03-27 17:44:00,
2013-03-27 12:52:00,46.0,29.0,30.13,North,360,0.0,4.0,51,0.00,,,0.00,,2013-03-27 17:52:00,
2013-03-27 13:02:00,47.0,28.0,30.13,NE,46,1.0,6.0,48,0.00,,,0.00,,2013-03-27 18:02:00,
2013-03-27 13:12:00,47.0,28.0,30.13,NE,46,1.0,6.0,48,0.00,,,0.00,,2013-03-27 18:12:00,
2013-03-27 13:22:00,48.0,28.0,30.12,ENE,66,1.0,3.0,46,0.00,,,0.00,,2013-03-27 18:22:00,
2013-03-27 13:32:00,48.0,28.0,30.12,NE,40,2.0,5.0,45,0.00,,,0.00,,2013-03-27 18:32:00,
2013-03-27 13:42:00,48.0,28.0,30.12,NE,40,2.0,5.0,45,0.00,,,0.00,,2013-03-27 18:42:00,
2013-03-27 13:52:00,50.0,28.0,30.12,NE,49,2.0,6.0,42,0.00,,,0.00,,2013-03-27 18:52:00,
2013-03-27 14:02:00,51.0,28.0,30.11,SE,141,1.0,5.0,41,0.00,,,0.00,,2013-03-27 19:02:00,
2013-03-27 14:12:00,51.0,28.0,30.11,SE,141,1.0,5.0,41,0.00,,,0.00,,2013-03-27 19:12:00,
2013-03-27 14:22:00,52.0,30.0,30.11,East,100,0.0,9.0,42,0.00,,,0.00,,2013-03-27 19:22:00,
2013-03-27 14:32:00,52.0,28.0,30.11,NW,324,0.0,4.0,40,0.00,,,0.00,,2013-03-27 19:32:00,
2013-03-27 14:42:00,52.0,28.0,30.11,NW,324,0.0,4.0,40,0.00,,,0.00,,2013-03-27 19:42:00,
2013-03-27 14:52:00,53.0,28.0,30.10,SE,133,0.0,5.0,38,0.00,,,0.00,,2013-03-27 19:52:00,
2013-03-27 15:02:00,54.0,28.0,30.10,WNW,302,0.0,4.0,37,0.00,,,0.00,,2013-03-27 20:02:00,
2013-03-27 15:12:00,54.0,28.0,30.10,WNW,302,0.0,4.0,37,0.00,,,0.00,,2013-03-27 20:12:00,
2013-03-27 15:22:00,55.0,29.0,30.09,NNE,24,1.0,4.0,36,0.00,,,0.00,,2013-03-27 20:22:00,
2013-03-27 15:32:00,56.0,29.0,30.09,SW,225,0.0,4.0,35,0.00,,,0.00,,2013-03-27 20:32:00,
2013-03-27 15:42:00,56.0,29.0,30.09,SW,225,0.0,4.0,35,0.00,,,0.00,,2013-03-27 20:42:00,
2013-03-27 15:52:00,56.0,29.0,30.09,NE,36,1.0,6.0,36,0.00,,,0.00,,2013-03-27 20:52:00,
2013-03-27 16:02:00,58.0,29.0,30.08,SE,142,1.0,5.0,33,0.00,,,0.00,,2013-03-27 21:02:00,
2013-03-27 16:12:00,58.0,29.0,30.08,SE,142,1.0,5.0,33,0.00,,,0.00,,2013-03-27 21:12:00,
2013-03-27 16:22:00,58.0,30.0,30.08,SSE,167,1.0,4.0,34,0.00,,,0.00,,2013-03-27 21:22:00,
2013-03-27 16:32:00,59.0,28.0,30.07,ENE,74,0.0,5.0,31,0.00,,,0.00,,2013-03-27 21:32:00,
2013-03-27 16:43:00,59.0,28.0,30.07,ENE,74,0.0,5.0,31,0.00,,,0.00,,2013-03-27 21:43:00,
2013-03-27 16:52:00,59.0,28.0,30.07,SE,133,1.0,5.0,30,0.00,,,0.00,,2013-03-27 21:52:00,
2013-03-27 17:03:00,60.0,28.0,30.07,ENE,57,2.0,5.0,30,0.00,,,0.00,,2013-03-27 22:03:00,
2013-03-27 17:12:00,60.0,28.0,30.07,ENE,57,2.0,5.0,30,0.00,,,0.00,,2013-03-27 22:12:00,
2013-03-27 17:23:00,59.0,28.0,30.07,ENE,63,1.0,4.0,31,0.00,,,0.00,,2013-03-27 22:23:00,
2013-03-27 17:33:00,59.0,28.0,30.07,SSE,158,0.0,4.0,30,0.00,,,0.00,,2013-03-27 22:33:00,
2013-03-27 17:42:00,59.0,28.0,30.07,SSE,158,0.0,4.0,30,0.00,,,0.00,,2013-03-27 22:42:00,
2013-03-27 17:52:00,59.0,28.0,30.07,SE,132,0.0,5.0,30,0.00,,,0.00,,2013-03-27 22:52:00,
2013-03-27 18:02:00,59.0,27.0,30.07,SSW,196,0.0,4.0,29,0.00,,,0.00,,2013-03-27 23:02:00,
2013-03-27 18:12:00,59.0,27.0,30.07,SSW,196,0.0,4.0,29,0.00,,,0.00,,2013-03-27 23:12:00,
2013-03-27 18:22:00,60.0,28.0,30.08,ESE,123,0.0,6.0,29,0.00,,,0.00,,2013-03-27 23:22:00,
2013-03-27 18:32:00,60.0,28.0,30.08,South,174,1.0,4.0,29,0.00,,,0.00,,2013-03-27 23:32:00,
2013-03-27 18:42:00,60.0,28.0,30.08,South,174,1.0,4.0,29,0.00,,,0.00,,2013-03-27 23:42:00,
2013-03-27 18:52:00,59.0,28.0,30.08,SSE,156,1.0,5.0,30,0.00,,,0.00,,2013-03-27 23:52:00,
2013-03-27 19:02:00,59.0,28.0,30.08,SSE,156,1.0,5.0,30,0.00,,,0.00,,2013-03-28 00:02:00,
2013-03-27 19:12:00,59.0,28.0,30.08,SSE,156,1.0,5.0,30,0.00,,,0.00,,2013-03-28 00:12:00,
2013-03-27 19:22:00,59.0,28.0,30.08,SE,125,1.0,7.0,30,0.00,,,0.00,,2013-03-28 00:22:00,
2013-03-27 19:32:00,57.0,27.0,30.09,SE,140,0.0,5.0,32,0.00,,,0.00,,2013-03-28 00:32:00,
2013-03-27 19:43:00,57.0,27.0,30.09,SE,140,0.0,5.0,32,0.00,,,0.00,,2013-03-28 00:43:00,
2013-03-27 19:52:00,56.0,28.0,30.09,SE,131,1.0,9.0,34,0.00,,,0.00,,2013-03-28 00:52:00,
2013-03-27 20:02:00,55.0,29.0,30.09,SE,130,0.0,5.0,36,0.00,,,0.00,,2013-03-28 01:02:00,
2013-03-27 20:12:00,55.0,29.0,30.09,SE,130,0.0,5.0,36,0.00,,,0.00,,2013-03-28 01:12:00,
2013-03-27 20:22:00,54.0,28.0,30.09,SE,144,0.0,3.0,37,0.00,,,0.00,,2013-03-28 01:22:00,
2013-03-27 20:32:00,52.0,28.0,30.10,SSE,148,0.0,3.0,39,0.00,,,0.00,,2013-03-28 01:32:00,
2013-03-27 20:42:00,52.0,28.0,30.10,SSE,148,0.0,3.0,39,0.00,,,0.00,,2013-03-28 01:42:00,
2013-03-27 20:52:00,50.0,28.0,30.10,SE,134,0.0,3.0,42,0.00,,,0.00,,2013-03-28 01:52:00,
2013-03-27 21:02:00,49.0,28.0,30.11,SE,137,2.0,4.0,44,0.00,,,0.00,,2013-03-28 02:02:00,
2013-03-27 21:12:00,49.0,28.0,30.11,SE,137,2.0,4.0,44,0.00,,,0.00,,2013-03-28 02:12:00,
2013-03-27 21:22:00,48.0,28.0,30.11,SSE,148,0.0,2.0,46,0.00,,,0.00,,2013-03-28 02:22:00,
2013-03-27 21:32:00,46.0,27.0,30.12,SE,136,0.0,2.0,48,0.00,,,0.00,,2013-03-28 02:32:00,
2013-03-27 21:42:00,46.0,27.0,30.12,SE,136,0.0,2.0,48,0.00,,,0.00,,2013-03-28 02:42:00,
2013-03-27 21:52:00,46.0,27.0,30.12,SE,136,0.0,2.0,48,0.00,,,0.00,,2013-03-28 02:52:00,
2013-03-27 22:02:00,44.0,28.0,30.13,SE,136,0.0,2.0,53,0.00,,,0.00,,2013-03-28 03:02:00,
2013-03-27 22:12:00,44.0,28.0,30.13,SE,136,0.0,2.0,53,0.00,,,0.00,,2013-03-28 03:12:00,
2013-03-27 22:22:00,42.0,27.0,30.14,SE,136,0.0,1.0,55,0.00,,,0.00,,2013-03-28 03:22:00,
2013-03-27 22:33:00,41.0,27.0,30.14,SE,136,0.0,2.0,58,0.00,,,0.00,,2013-03-28 03:33:00,
2013-03-27 22:43:00,41.0,27.0,30.14,SE,136,0.0,2.0,58,0.00,,,0.00,,2013-03-28 03:43:00,
2013-03-27 22:52:00,40.0,27.0,30.15,SE,136,0.0,1.0,59,0.00,,,0.00,,2013-03-28 03:52:00,
2013-03-27 23:02:00,40.0,28.0,30.16,SE,136,0.0,1.0,61,0.00,,,0.00,,2013-03-28 04:02:00,
2013-03-27 23:12:00,40.0,28.0,30.16,SE,136,0.0,1.0,61,0.00,,,0.00,,2013-03-28 04:12:00,
2013-03-27 23:23:00,39.0,27.0,30.15,SE,136,0.0,1.0,62,0.00,,,0.00,,2013-03-28 04:23:00,
2013-03-27 23:32:00,39.0,27.0,30.16,SE,136,0.0,1.0,63,0.00,,,0.00,,2013-03-28 04:32:00,
2013-03-27 23:42:00,39.0,27.0,30.16,SE,136,0.0,1.0,63,0.00,,,0.00,,2013-03-28 04:42:00,
2013-03-27 23:52:00,38.0,27.0,30.16,SE,136,0.0,1.0,65,0.00,,,0.00,,2013-03-28 04:52:00,